User: anonymous   Login
Location: Unspecified
(0.0000°N, 0.0000°E)
Time: 06:49:25
(UTC+00:00)
Language:

STARLINK-35616 - Orbit

View from above orbital plane
View from above orbital plane
View from above satellite
View from above satellite

Ground track
Ground track

The orbit is defined by the following mean orbital elements,

1 66255U          26145.10390395 +.00000000 +00000-0 +75159-3 0 00005
2 66255  53.1578 289.1128 0001087  84.5150 275.5975 15.30202160    05
Epoch (UTC): 25 May 2026 02:29:37
Eccentricity: 0.0001087
inclination: 53.1578°
perigee height: 474 km
apogee height: 476 km
right ascension of ascending node: 289.1128°
argument of perigee: 84.5150°
revolutions per day: 15.30202160
mean anomaly at epoch: 275.5975°

The dashed part of the orbit path shows where the satellite is in the earth's shadow,  

DLR